GW1618 Weather Reports


Display with metric or nautical units.
time (UTC)temp
F
wind
direction
speed
MPH
gust
MPH
rain 1hr
in
rain 24hr
in
rain mn
in
humidity
%
barometer
mb
20260831191502 67 14 5.0 8.0 0.00 0.00 0.00 62 1010.9
20260831191010 66 359 6.0 11.0 0.00 0.00 0.00 63 1011.2
20260831190505 66 354 5.0 11.0 0.00 0.00 0.00 61 1011.2
20260831190002 66 22 4.0 9.0 0.00 0.00 0.00 64 1011.2
20260831185454 66 42 6.0 15.0 0.00 0.00 0.00 62 1011.3
20260831184953 65 17 8.0 15.0 0.00 0.00 0.00 64 1011.3
20260831184537 65 344 8.0 11.0 0.00 0.00 0.00 64 1011.3
20260831183427 65 34 8.0 14.0 0.00 0.00 0.00 60 1011.4
20260831182932 65 9 7.0 11.0 0.00 0.00 0.00 64 1011.4
20260831182721 65 28 6.0 11.0 0.00 0.00 0.00 64 1011.8
20260831182218 65 335 5.0 11.0 0.00 0.00 0.00 63 1011.8
20260831181701 66 9 5.0 11.0 0.00 0.00 0.00 63 1011.8
20260831180903 65 59 5.0 12.0 0.00 0.00 0.00 63 1011.8
20260831180402 65 32 4.0 11.0 0.00 0.00 0.00 64 1011.8
20260831175902 65 53 5.0 13.0 0.00 0.00 0.00 64 1011.8
20260831175659 65 37 6.0 13.0 0.00 0.00 0.00 64 1011.9
20260831174905 64 60 8.0 13.0 0.00 0.00 0.00 65 1011.9
20260831174402 64 21 8.0 14.0 0.00 0.00 0.00 65 1011.9
20260831173904 63 45 8.0 14.0 0.00 0.00 0.00 66 1012.2
20260831173714 63 21 8.0 12.0 0.00 0.00 0.00 68 1012.2
20260831172903 62 359 7.0 12.0 0.00 0.00 0.00 72 1012.2
20260831172402 62 359 7.0 13.0 0.00 0.00 0.00 73 1012.3
20260831172009 62 26 7.0 13.0 0.00 0.00 0.00 73 1012.3
20260831170906 61 19 5.0 10.0 0.00 0.00 0.00 74 1012.3
20260831170405 61 354 6.0 11.0 0.00 0.00 0.00 75 1012.3
20260831165909 61 335 6.0 11.0 0.00 0.00 0.00 76 1012.3
20260831165414 60 346 5.0 10.0 0.00 0.00 0.00 77 1012.3
20260831165159 60 13 5.0 8.0 0.00 0.00 0.00 77 1012.3
20260831164401 60 9 5.0 7.0 0.00 0.00 0.00 78 1012.3
20260831163855 60 13 4.0 7.0 0.00 0.00 0.00 79 1012.4
20260831163345 60 347 4.0 7.0 0.00 0.00 0.00 80 1012.4
20260831162838 59 344 4.0 7.0 0.00 0.00 0.00 81 1012.4
20260831162340 59 340 4.0 6.0 0.00 0.00 0.00 81 1012.6
20260831161841 59 352 4.0 6.0 0.00 0.00 0.00 82 1012.6
20260831161336 59 352 5.0 7.0 0.00 0.00 0.00 83 1012.6
20260831161128 58 333 5.0 7.0 0.00 0.00 0.00 83 1012.8
20260831160335 58 9 5.0 7.0 0.00 0.00 0.00 84 1012.8
20260831155834 58 327 5.0 7.0 0.00 0.00 0.00 84 1012.8
20260831155332 58 354 4.0 7.0 0.00 0.00 0.00 84 1012.9
20260831154832 58 359 4.0 5.0 0.00 0.00 0.00 86 1012.9
20260831154332 58 344 4.0 6.0 0.00 0.00 0.00 86 1012.9
20260831153831 57 349 4.0 6.0 0.00 0.00 0.00 87 1012.9
20260831153335 57 341 4.0 6.0 0.00 0.00 0.00 87 1012.9
20260831153144 57 13 4.0 5.0 0.00 0.00 0.00 87 1012.9
20260831152333 57 9 4.0 5.0 0.00 0.00 0.00 87 1013.1
20260831151836 57 4 3.0 5.0 0.00 0.00 0.00 86 1013.1
20260831151342 57 21 2.0 4.0 0.00 0.00 0.00 86 1013.1
20260831150838 57 359 2.0 3.0 0.00 0.00 0.00 86 1013.1
20260831150432 57 359 2.0 3.0 0.00 0.00 0.00 86 1013.1
20260831145336 56 22 1.0 2.0 0.00 0.00 0.00 87 1013.0
20260831144831 56 39 1.0 2.0 0.00 0.00 0.00 87 1013.0
20260831144335 56 26 1.0 2.0 0.00 0.00 0.00 87 1013.0
20260831143822 56 47 1.0 3.0 0.00 0.00 0.00 88 1013.0
20260831143312 56 16 1.0 3.0 0.00 0.00 0.00 88 1013.0
20260831142808 55 16 2.0 3.0 0.00 0.00 0.00 88 1013.0
20260831142306 55 9 1.0 2.0 0.00 0.00 0.00 88 1013.0
20260831141802 55 66 1.0 2.0 0.00 0.00 0.00 88 1013.0
20260831141302 55 81 0.0 1.0 0.00 0.00 0.00 88 1013.0
20260831140841 55 81 0.0 0.0 0.00 0.00 0.00 87 1013.0
20260831135805 55 81 0.0 1.0 0.00 0.00 0.00 87 1013.0
20260831135302 54 81 1.0 1.0 0.00 0.00 0.00 86 1012.9
20260831134801 54 82 1.0 1.0 0.00 0.00 0.00 86 1012.9
20260831134303 54 82 1.0 1.0 0.00 0.00 0.00 85 1012.9
20260831133806 54 82 1.0 2.0 0.00 0.00 0.00 85 1013.1
20260831133556 54 82 1.0 2.0 0.00 0.00 0.00 85 1013.1
20260831132802 54 82 0.0 1.0 0.00 0.00 0.00 85 1013.1
20260831132308 55 82 0.0 1.0 0.00 0.00 0.00 85 1013.2
20260831131806 55 82 1.0 2.0 0.00 0.00 0.00 85 1013.2
20260831131302 55 82 1.0 2.0 0.00 0.00 0.00 85 1013.2
20260831130802 55 54 1.0 2.0 0.00 0.00 0.00 85 1013.3
20260831130301 55 9 0.0 2.0 0.00 0.00 0.00 86 1013.3
20260831130051 55 9 0.0 1.0 0.00 0.00 0.00 86 1013.3
20260831125552 55 9 0.0 2.0 0.00 0.00 0.00 86 1013.3
20260831125102 55 9 1.0 2.0 0.00 0.00 0.00 86 1013.3
20260831124302 55 9 1.0 2.0 0.00 0.00 0.00 86 1013.3
20260831123801 55 9 0.0 1.0 0.00 0.00 0.00 87 1013.4
20260831123308 56 9 0.0 1.0 0.00 0.00 0.00 87 1013.4
20260831123055 56 9 0.0 1.0 0.00 0.00 0.00 86 1013.4
20260831122256 56 9 0.0 1.0 0.00 0.00 0.00 86 1013.4
20260831121756 56 9 0.0 0.0 0.00 0.00 0.00 86 1013.4
20260831121237 56 9 0.0 0.0 0.00 0.00 0.00 86 1013.4
20260831120731 56 9 0.0 1.0 0.00 0.00 0.00 86 1013.6
20260831120226 56 9 0.0 1.0 0.00 0.00 0.00 86 1013.6
20260831115723 56 9 0.0 1.0 0.00 0.00 0.00 85 1013.6
20260831115223 56 9 0.0 1.0 0.00 0.00 0.00 85 1013.7
20260831114711 56 9 1.0 2.0 0.00 0.00 0.00 85 1013.7
20260831114208 56 9 1.0 2.0 0.00 0.00 0.00 85 1013.7
20260831113702 56 9 1.0 2.0 0.00 0.00 0.00 85 1013.8
20260831113206 56 9 1.0 2.0 0.00 0.00 0.00 85 1013.8
20260831112706 56 9 1.0 2.0 0.00 0.00 0.00 85 1013.8
20260831112512 56 9 1.0 3.0 0.00 0.00 0.00 84 1013.9
20260831111706 56 9 2.0 3.0 0.00 0.00 0.00 85 1013.9
20260831111205 56 4 1.0 3.0 0.00 0.00 0.00 85 1013.9
20260831110703 56 359 2.0 3.0 0.00 0.00 0.00 84 1013.9
20260831110137 56 359 2.0 3.0 0.00 0.00 0.00 84 1013.9
20260831105635 56 17 2.0 3.0 0.00 0.00 0.00 83 1013.9
20260831105133 56 339 1.0 3.0 0.00 0.00 0.00 83 1013.9
20260831104636 56 21 1.0 2.0 0.00 0.00 0.00 83 1013.9
20260831104131 56 21 1.0 2.0 0.00 0.00 0.00 83 1014.0
20260831103632 56 21 1.0 2.0 0.00 0.00 0.00 83 1014.0
20260831103132 56 21 0.0 2.0 0.00 0.00 0.00 82 1014.0
20260831102625 56 21 0.0 1.0 0.00 0.00 0.00 82 1014.1
20260831102128 56 21 0.0 1.0 0.00 0.00 0.00 81 1014.1
20260831101628 57 20 1.0 2.0 0.00 0.00 0.00 81 1014.1
20260831101106 57 21 1.0 2.0 0.00 0.00 0.00 81 1014.4
20260831100609 57 21 1.0 2.0 0.00 0.00 0.00 80 1014.4
20260831100145 57 21 1.0 2.0 0.00 0.00 0.00 80 1014.4
20260831094603 57 21 0.0 1.0 0.00 0.00 0.00 80 1014.4
20260831094104 57 21 0.0 1.0 0.00 0.00 0.00 80 1014.5
20260831093553 57 21 0.0 1.0 0.00 0.00 0.00 80 1014.5
20260831093050 57 21 0.0 2.0 0.00 0.00 0.00 80 1014.5
20260831092606 58 21 1.0 3.0 0.00 0.00 0.00 80 1014.4
20260831092054 58 20 2.0 3.0 0.00 0.00 0.00 80 1014.4
20260831091546 58 9 2.0 3.0 0.00 0.00 0.00 80 1014.4
20260831091042 58 4 3.0 4.0 0.00 0.00 0.00 80 1014.6
20260831090540 58 15 3.0 4.0 0.00 0.00 0.00 79 1014.6
20260831090039 58 359 3.0 4.0 0.00 0.00 0.00 79 1014.6
20260831085545 58 346 2.0 4.0 0.00 0.00 0.00 79 1014.9
20260831085036 58 4 2.0 3.0 0.00 0.00 0.00 79 1014.9
20260831084532 58 17 3.0 4.0 0.00 0.00 0.00 79 1014.9
20260831084033 58 31 3.0 4.0 0.00 0.00 0.00 78 1015.0
20260831083528 58 29 2.0 3.0 0.00 0.00 0.00 78 1015.0
20260831083029 58 32 2.0 3.0 0.00 0.00 0.00 79 1015.0
20260831082824 58 65 1.0 2.0 0.00 0.00 0.00 80 1015.0
20260831082021 59 13 1.0 2.0 0.00 0.00 0.00 79 1015.0
20260831081515 59 13 1.0 2.0 0.00 0.00 0.00 79 1015.0
20260831081010 59 17 0.0 2.0 0.00 0.00 0.00 79 1015.1
20260831080511 59 17 1.0 2.0 0.00 0.00 0.00 80 1015.1
20260831080003 59 17 1.0 3.0 0.00 0.00 0.00 79 1015.1
20260831075724 59 17 1.0 3.0 0.00 0.00 0.00 79 1015.1
20260831074955 59 9 2.0 3.0 0.00 0.00 0.00 79 1015.1
20260831074435 59 9 2.0 3.0 0.00 0.00 0.00 79 1015.1
20260831073937 60 9 1.0 2.0 0.00 0.00 0.00 78 1015.4
20260831073433 60 9 2.0 3.0 0.00 0.00 0.00 78 1015.4
20260831072931 60 9 2.0 3.0 0.00 0.00 0.00 77 1015.4
20260831072438 60 9 2.0 3.0 0.00 0.00 0.00 77 1015.4
20260831071936 60 9 2.0 3.0 0.00 0.00 0.00 76 1015.4
20260831071433 60 9 2.0 3.0 0.00 0.00 0.00 77 1015.4
20260831070929 60 9 2.0 3.0 0.00 0.00 0.00 76 1015.5
20260831070430 60 9 1.0 3.0 0.00 0.00 0.00 77 1015.5
20260831065932 60 20 2.0 3.0 0.00 0.00 0.00 77 1015.5
20260831065419 60 30 2.0 3.0 0.00 0.00 0.00 77 1015.6
20260831064921 60 15 2.0 3.0 0.00 0.00 0.00 76 1015.6
20260831064419 60 13 1.0 2.0 0.00 0.00 0.00 76 1015.6
20260831063910 61 43 1.0 2.0 0.00 0.00 0.00 76 1015.8
20260831063405 61 21 1.0 2.0 0.00 0.00 0.00 74 1015.8
20260831062906 61 9 1.0 2.0 0.00 0.00 0.00 74 1015.8
20260831062404 61 9 1.0 2.0 0.00 0.00 0.00 74 1015.9
20260831062202 61 9 1.0 2.0 0.00 0.00 0.00 74 1015.9
20260831061402 61 9 2.0 3.0 0.00 0.00 0.00 72 1015.9
20260831061205 62 23 2.0 3.0 0.00 0.00 0.00 72 1015.9
20260831060402 62 9 2.0 3.0 0.00 0.00 0.00 71 1015.9
20260831055902 62 9 2.0 3.0 0.00 0.00 0.00 71 1015.9
20260831055405 62 4 3.0 4.0 0.00 0.00 0.00 70 1016.0
20260831055154 63 351 3.0 4.0 0.00 0.00 0.00 70 1016.0
20260831054654 63 350 2.0 3.0 0.00 0.00 0.00 69 1016.0
20260831053906 63 346 3.0 4.0 0.00 0.00 0.00 68 1016.1
20260831053410 63 341 3.0 5.0 0.00 0.00 0.00 68 1016.1
20260831052909 63 345 3.0 5.0 0.00 0.00 0.00 69 1016.1
20260831052402 63 9 3.0 5.0 0.00 0.00 0.00 69 1016.3
20260831051904 63 9 2.0 5.0 0.00 0.00 0.00 68 1016.3
20260831051711 63 23 3.0 5.0 0.00 0.00 0.00 69 1016.3
20260831050902 63 26 3.0 6.0 0.00 0.00 0.00 70 1016.3
20260831050407 63 9 4.0 6.0 0.00 0.00 0.00 69 1016.3
20260831045914 63 9 3.0 5.0 0.00 0.00 0.00 68 1016.3
20260831045409 63 9 3.0 5.0 0.00 0.00 0.00 69 1016.4
20260831044854 63 15 2.0 4.0 0.00 0.00 0.00 66 1016.4
20260831044353 63 35 2.0 4.0 0.00 0.00 0.00 65 1016.4
20260831043848 63 9 3.0 4.0 0.00 0.00 0.00 63 1016.5
20260831043656 63 344 3.0 4.0 0.00 0.00 0.00 65 1016.5
20260831042834 63 354 2.0 4.0 0.00 0.00 0.00 65 1016.5
20260831042358 64 359 2.0 4.0 0.00 0.00 0.00 64 1016.5
20260831041310 64 38 1.0 4.0 0.00 0.00 0.00 64 1016.5
20260831041110 64 65 1.0 3.0 0.00 0.00 0.00 64 1016.5
20260831040304 64 19 1.0 2.0 0.00 0.00 0.00 62 1016.5
20260831040115 64 19 1.0 3.0 0.00 0.00 0.00 60 1016.5
20260831035306 65 22 1.0 3.0 0.00 0.00 0.00 58 1016.2
20260831035110 65 359 1.0 2.0 0.00 0.00 0.00 57 1016.2
20260831034303 65 346 2.0 3.0 0.00 0.00 0.00 54 1016.2
20260831033803 66 346 2.0 4.0 0.00 0.00 0.00 54 1016.1
20260831033304 66 350 2.0 4.0 0.00 0.00 0.00 55 1016.1
20260831032758 66 342 2.0 3.0 0.00 0.00 0.00 54 1016.1
20260831032301 66 13 2.0 3.0 0.00 0.00 0.00 54 1016.0
20260831031749 67 359 2.0 4.0 0.00 0.00 0.00 53 1016.0
20260831031250 67 359 2.0 4.0 0.00 0.00 0.00 53 1016.0
20260831030738 68 346 2.0 5.0 0.00 0.00 0.00 51 1016.0
20260831030243 68 53 2.0 5.0 0.00 0.00 0.00 47 1016.0
20260831025738 68 57 2.0 4.0 0.00 0.00 0.00 47 1016.0
20260831025239 68 58 2.0 4.0 0.00 0.00 0.00 47 1016.1
20260831025029 69 71 3.0 5.0 0.00 0.00 0.00 47 1016.1
20260831024536 69 64 3.0 6.0 0.00 0.00 0.00 47 1016.1
20260831023733 69 76 4.0 6.0 0.00 0.00 0.00 46 1016.3
20260831023232 69 86 4.0 8.0 0.00 0.00 0.00 45 1016.3
20260831022730 69 104 4.0 8.0 0.00 0.00 0.00 45 1016.3
20260831022218 70 88 4.0 7.0 0.00 0.00 0.00 44 1016.5
20260831021716 70 76 4.0 7.0 0.00 0.00 0.00 44 1016.5
20260831021209 70 80 4.0 7.0 0.00 0.00 0.00 44 1016.5
20260831021016 70 60 4.0 7.0 0.00 0.00 0.00 44 1016.5
20260831020213 70 81 5.0 10.0 0.00 0.00 0.00 43 1016.5
20260831015715 70 69 5.0 10.0 0.00 0.00 0.00 43 1016.5
20260831015210 70 54 5.0 9.0 0.00 0.00 0.00 43 1016.5
20260831015011 70 55 4.0 9.0 0.00 0.00 0.00 44 1016.5
20260831014207 70 98 4.0 7.0 0.00 0.00 0.00 44 1016.5
20260831013706 70 21 4.0 7.0 0.00 0.00 0.00 48 1016.5
20260831013206 70 20 4.0 7.0 0.00 0.00 0.00 48 1016.5
20260831012706 69 9 4.0 6.0 0.00 0.00 0.00 48 1016.5
20260831012210 69 359 5.0 7.0 0.00 0.00 0.00 49 1016.6
20260831011707 69 347 5.0 7.0 0.00 0.00 0.00 51 1016.6
20260831011204 69 352 4.0 6.0 0.00 0.00 0.00 53 1016.6
20260831010706 69 4 5.0 7.0 0.00 0.00 0.00 49 1016.7
20260831010201 69 359 5.0 7.0 0.00 0.00 0.00 49 1016.7
20260831010030 69 9 5.0 6.0 0.00 0.00 0.00 49 1016.7
20260831005203 69 359 5.0 6.0 0.00 0.00 0.00 47 1016.9
20260831004700 69 15 6.0 9.0 0.00 0.00 0.00 47 1016.9
20260831004157 69 9 6.0 9.0 0.00 0.00 0.00 47 1016.9
20260831003647 69 17 5.0 8.0 0.00 0.00 0.00 47 1017.0
20260831003445 70 313 6.0 7.0 0.00 0.00 0.00 49 1017.0
20260831002632 70 17 6.0 7.0 0.00 0.00 0.00 45 1017.1
20260831002131 70 4 5.0 7.0 0.00 0.00 0.00 47 1017.1
20260831001623 70 9 4.0 7.0 0.00 0.00 0.00 47 1017.1
20260831001120 70 351 3.0 6.0 0.00 0.00 0.00 49 1017.2
20260831000605 70 337 3.0 4.0 0.00 0.00 0.00 46 1017.2
20260831000105 70 338 3.0 6.0 0.00 0.00 0.00 48 1017.2
20260830235559 69 4 4.0 6.0 0.00 0.00 0.00 49 1017.4
20260830235054 69 9 5.0 7.0 0.00 0.00 0.00 51 1017.4
20260830234901 68 15 6.0 7.0 0.00 0.00 0.00 48 1017.4
20260830234353 68 13 6.0 7.0 0.00 0.00 0.00 51 1017.5
20260830233546 68 23 5.0 7.0 0.00 0.00 0.00 47 1017.5
20260830233043 69 27 5.0 6.0 0.00 0.00 0.00 48 1017.5
20260830232541 69 359 5.0 7.0 0.00 0.00 0.00 50 1017.6
20260830232335 69 21 5.0 7.0 0.00 0.00 0.00 53 1017.6
20260830231837 69 9 6.0 7.0 0.00 0.00 0.00 49 1017.6
20260830231038 68 19 6.0 9.0 0.00 0.00 0.00 48 1017.6
20260830230902 68 17 6.0 9.0 0.00 0.00 0.00 51 1017.6
20260830230042 68 28 7.0 10.0 0.00 0.00 0.00 50 1017.6
20260830225841 68 28 8.0 10.0 0.00 0.00 0.00 55 1017.9
20260830225038 67 9 8.0 10.0 0.00 0.00 0.00 51 1017.9
20260830224536 67 16 8.0 10.0 0.00 0.00 0.00 51 1017.9
20260830224037 67 17 7.0 10.0 0.00 0.00 0.00 54 1018.1
20260830223630 68 21 6.0 9.0 0.00 0.00 0.00 55 1018.1
20260830222532 67 339 6.0 9.0 0.00 0.00 0.00 57 1018.1
20260830222033 67 18 7.0 9.0 0.00 0.00 0.00 53 1018.1
20260830221530 67 14 8.0 10.0 0.00 0.00 0.00 52 1018.1
20260830221337 67 9 9.0 11.0 0.00 0.00 0.00 51 1018.2
20260830220528 66 9 10.0 11.0 0.00 0.00 0.00 52 1018.2
20260830220017 66 15 9.0 12.0 0.00 0.00 0.00 51 1018.2
20260830215516 67 14 8.0 12.0 0.00 0.00 0.00 56 1018.6
20260830215015 67 9 9.0 11.0 0.00 0.00 0.00 56 1018.6
20260830214823 66 13 10.0 15.0 0.00 0.00 0.00 54 1018.6
20260830214253 66 28 10.0 15.0 0.00 0.00 0.00 55 1018.7
20260830213606 66 359 10.0 13.0 0.00 0.00 0.00 56 1018.7
20260830212513 66 4 9.0 11.0 0.00 0.00 0.00 61 1018.8
20260830212011 66 9 9.0 11.0 0.00 0.00 0.00 57 1018.8
20260830211513 66 9 8.0 11.0 0.00 0.00 0.00 58 1018.8
20260830211012 66 9 6.0 11.0 0.00 0.00 0.00 58 1018.7
20260830210509 67 359 4.0 9.0 0.00 0.00 0.00 57 1018.7
20260830205005 67 21 4.0 9.0 0.00 0.00 0.00 57 1018.8
20260830204506 66 317 4.0 9.0 0.00 0.00 0.00 54 1018.8
20260830204012 66 323 4.0 7.0 0.00 0.00 0.00 59 1019.1
20260830203507 66 353 5.0 7.0 0.00 0.00 0.00 61 1019.1
20260830203006 66 342 4.0 6.0 0.00 0.00 0.00 59 1019.1
20260830202820 65 13 5.0 7.0 0.00 0.00 0.00 61 1019.1
20260830202337 65 9 5.0 7.0 0.00 0.00 0.00 62 1019.1
20260830201817 64 13 6.0 7.0 0.00 0.00 0.00 60 1019.1
20260830201009 64 9 6.0 8.0 0.00 0.00 0.00 62 1019.1
20260830200457 64 13 6.0 10.0 0.00 0.00 0.00 63 1019.1
20260830195948 64 32 6.0 10.0 0.00 0.00 0.00 65 1019.1
20260830195742 63 16 6.0 10.0 0.00 0.00 0.00 68 1019.2
20260830194944 63 4 7.0 11.0 0.00 0.00 0.00 67 1019.2
20260830194448 62 344 9.0 11.0 0.00 0.00 0.00 68 1019.2
20260830193939 62 9 9.0 11.0 0.00 0.00 0.00 67 1019.5
20260830193439 62 16 9.0 12.0 0.00 0.00 0.00 68 1019.5
20260830192937 62 26 10.0 12.0 0.00 0.00 0.00 67 1019.5
20260830192436 62 17 10.0 14.0 0.00 0.00 0.00 70 1019.6